ES2JT Weather Reports


time (UTC)temp
F
wind
direction
speed
knots
gust
knots
rain 1hr
in
rain 24hr
in
rain mn
in
humidity
%
barometer
mb
20260505124525 49 288 15.6 20.9 0.00 0.05 0.05 66 1001.0
20260505123625 49 311 15.6 20.0 0.00 0.05 0.05 66 1000.8
20260505122941 50 303 15.6 18.2 0.00 0.05 0.05 63 1000.7
20260505121825 51 303 13.9 19.1 0.00 0.05 0.05 61 1000.8
20260505120925 51 327 12.2 18.2 0.00 0.05 0.05 62 1000.6
20260505120025 51 312 13.0 19.1 0.00 0.05 0.05 63 1000.6
20260505115125 51 324 13.0 17.4 0.00 0.05 0.05 64 1000.5
20260505114438 51 315 13.0 20.0 0.00 0.05 0.05 65 1000.4
20260505113326 50 308 14.8 18.2 0.00 0.06 0.05 66 1000.4
20260505112425 50 302 16.5 21.7 0.00 0.07 0.05 66 1000.4
20260505111526 50 313 16.5 20.9 0.00 0.08 0.05 65 1000.1
20260505110625 51 271 15.6 21.7 0.00 0.08 0.05 63 1000.3
20260505102125 52 267 14.8 20.9 0.00 0.14 0.05 63 999.7
20260505101436 51 283 14.8 17.4 0.00 0.15 0.05 64 999.7
20260505100539 51 313 13.9 20.9 0.00 0.15 0.05 62 999.5
20260505095636 52 300 17.4 20.9 0.00 0.15 0.05 61 999.2
20260505094525 53 288 14.8 19.1 0.00 0.17 0.05 58 999.2
20260505093625 53 305 15.6 23.5 0.00 0.17 0.05 58 999.0
20260505092727 53 279 15.6 24.3 0.00 0.17 0.05 58 998.8
20260505091825 53 291 17.4 24.3 0.00 0.17 0.05 59 998.8
20260505090926 53 294 18.2 23.5 0.00 0.18 0.05 60 998.8
20260505090025 53 289 15.6 20.9 0.00 0.18 0.05 59 998.5
20260505085125 54 282 17.4 20.9 0.00 0.18 0.05 58 998.4
20260505084226 53 301 19.1 23.5 0.00 0.18 0.05 59 998.3
20260505083325 53 287 16.5 23.5 0.00 0.18 0.05 59 998.4
20260505082425 53 283 14.8 20.9 0.00 0.18 0.05 60 998.1
20260505081525 52 291 16.5 22.6 0.00 0.18 0.05 60 998.3
20260505080625 53 307 15.6 20.0 0.00 0.18 0.05 61 998.3
20260505075727 53 279 15.6 20.0 0.00 0.18 0.05 61 998.0
20260505074825 53 302 17.4 23.5 0.00 0.18 0.05 60 998.2
20260505073926 53 280 18.2 22.6 0.00 0.18 0.05 59 997.9
20260505073027 53 279 15.6 20.0 0.00 0.18 0.05 57 998.0
20260505072126 54 295 13.9 18.2 0.00 0.18 0.05 55 997.9
20260505071227 54 302 13.9 18.2 0.00 0.18 0.05 55 997.7
20260505070325 55 282 12.2 19.1 0.00 0.18 0.05 55 997.6
20260505065425 55 264 11.3 18.2 0.00 0.18 0.05 55 997.5
20260505064525 54 285 15.6 19.1 0.00 0.18 0.05 58 997.6
20260505063625 54 263 12.2 14.8 0.00 0.18 0.05 57 997.7
20260505061802 55 254 13.0 18.2 0.00 0.18 0.05 57 997.6
20260505060904 55 235 10.4 18.2 0.00 0.18 0.05 58 997.4
20260505060003 54 236 11.3 16.5 0.00 0.18 0.05 60 997.4
20260505055102 54 262 13.0 18.2 0.00 0.18 0.05 59 997.4
20260505054203 55 269 10.4 13.0 0.00 0.18 0.05 61 997.2
20260505053515 55 237 10.4 15.6 0.00 0.18 0.05 62 997.3
20260505052404 54 231 10.4 14.8 0.00 0.18 0.05 68 997.1
20260505051502 53 190 12.2 15.6 0.00 0.18 0.05 68 997.1
20260505050812 52 216 11.3 15.6 0.00 0.18 0.05 70 997.3
20260505041416 47 219 8.7 12.2 0.00 0.18 0.05 91 997.4
20260505040513 46 211 9.6 13.0 0.00 0.18 0.05 90 997.4
20260505035402 47 196 11.3 13.9 0.00 0.18 0.05 92 997.4
20260505034502 48 206 7.8 12.2 0.00 0.18 0.05 94 997.5
20260505033815 47 217 8.7 11.3 0.00 0.18 0.05 95 997.5
20260505032702 46 216 7.8 13.0 0.00 0.18 0.05 97 997.4
20260505032015 46 222 7.8 12.2 0.00 0.18 0.05 97 997.5
20260505030903 46 208 7.0 9.6 0.00 0.18 0.05 97 997.3
20260505030003 45 218 6.1 8.7 0.00 0.18 0.05 97 997.5
20260505025312 45 208 7.0 7.8 0.00 0.18 0.05 97 997.6
20260505024414 44 215 6.1 8.7 0.00 0.18 0.05 98 997.6
20260505023512 45 210 7.0 10.4 0.00 0.18 0.05 97 997.5
20260505022403 45 225 7.0 9.6 0.00 0.18 0.05 97 997.5
20260505021711 45 216 7.0 9.6 0.00 0.18 0.05 97 997.4
20260505020602 45 262 7.8 10.4 0.00 0.18 0.05 97 997.6
20260505015916 45 235 7.0 9.6 0.00 0.18 0.05 97 997.6
20260505014802 45 203 6.1 9.6 0.00 0.18 0.05 97 997.6
20260505013904 45 219 6.1 8.7 0.00 0.18 0.05 97 997.8
20260505013213 46 208 6.1 9.6 0.00 0.18 0.05 96 997.9
20260505012316 46 213 6.1 7.8 0.00 0.18 0.05 96 997.7
20260505011413 46 227 7.8 11.3 0.00 0.18 0.05 96 997.7
20260505010302 46 219 8.7 11.3 0.00 0.18 0.05 96 997.8
20260505005612 46 228 8.7 12.2 0.00 0.18 0.05 95 997.9
20260505004715 46 216 8.7 13.0 0.00 0.18 0.05 95 997.9
20260505003812 46 240 9.6 13.0 0.00 0.18 0.05 96 997.9
20260505002915 46 202 9.6 13.0 0.00 0.18 0.05 96 997.8
20260505001802 46 228 8.7 13.0 0.05 0.18 0.05 97 997.9
20260505001114 46 234 7.0 8.7 0.05 0.18 0.05 97 997.7
20260505000003 46 224 9.6 14.8 0.05 0.18 0.05 97 998.0
20260504235102 46 231 7.8 14.8 0.05 0.18 0.05 97 997.9
20260504234202 46 219 8.7 11.3 0.05 0.18 0.05 97 997.7
20260504233303 46 216 8.7 11.3 0.05 0.18 0.05 98 998.0
20260504192226 46 14 2.6 3.5 0.00 0.13 0.13 94 997.0
20260504191326 46 14 2.6 3.5 0.00 0.13 0.13 94 997.0
20260504190426 46 14 2.6 3.5 0.00 0.13 0.13 94 997.0
20260504185741 46 14 2.6 3.5 0.00 0.13 0.13 94 997.0
20260504184626 46 14 2.6 3.5 0.00 0.13 0.13 94 997.0
20260504183726 46 14 2.6 3.5 0.00 0.13 0.13 94 997.0
20260504183038 46 14 2.6 3.5 0.00 0.13 0.13 94 997.0
20260504182140 46 14 2.6 3.5 0.00 0.13 0.13 94 997.0
20260504181027 46 14 2.6 3.5 0.00 0.13 0.13 94 997.0
20260504180126 46 14 2.6 3.5 0.00 0.13 0.13 94 997.0
20260504175227 46 14 2.6 3.5 0.00 0.13 0.13 94 997.0
20260504174327 46 14 2.6 3.5 0.00 0.13 0.13 94 997.0
20260504173637 46 14 2.6 3.5 0.00 0.13 0.13 94 997.0
20260504172526 46 14 2.6 3.5 0.00 0.13 0.13 94 997.0
20260504171626 46 14 2.6 3.5 0.00 0.13 0.13 94 997.0
20260504170726 46 14 2.6 3.5 0.00 0.13 0.13 94 997.0
20260504160426 46 14 2.6 3.5 0.00 0.13 0.13 94 997.0
20260504151026 46 14 2.6 3.5 0.00 0.13 0.13 94 997.0
20260504150126 46 14 2.6 3.5 0.00 0.13 0.13 94 997.0
20260504140726 46 14 2.6 3.5 0.00 0.13 0.13 94 997.0
20260504130427 46 14 2.6 3.5 0.00 0.13 0.13 94 997.0